Hourly Weather Ruyigi

Today, 10 April, Saturday

Time Temperature Precipitation Wind Pressure Humidity
00:00 +14°C° 0 mm 0 mps 618 mmHg 92%
01:00 +14°C° 0 mm 0 mps 617 mmHg 92%
02:00 +14°C° 0 mm 1 mps 617 mmHg 92%
03:00 +14°C° 0 mm 1 mps 617 mmHg 92%
04:00 +13°C° 0 mm 0 mps 617 mmHg 91%
05:00 +14°C° 0 mm 0 mps 617 mmHg 91%
06:00 +15°C° 0 mm 0 mps 618 mmHg 88%
07:00 +16°C° 0 mm 0 mps 619 mmHg 85%
08:00 +17°C° 0 mm 0 mps 620 mmHg 82%
09:00 +20°C° 0.3 mm 1 mps 620 mmHg 77%
10:00 +22°C° 0.3 mm 1 mps 620 mmHg 72%
11:00 +23°C° 0.3 mm 2 mps 621 mmHg 67%
12:00 +23°C° 0.8 mm 2 mps 620 mmHg 70%
13:00 +23°C° 0.8 mm 2 mps 620 mmHg 73%
14:00 +21°C° 0 mm 2 mps 619 mmHg 77%
15:00 +20°C° 1 mm 2 mps 619 mmHg 82%
16:00 +19°C° 1 mm 2 mps 618 mmHg 87%
17:00 +18°C° 1 mm 2 mps 618 mmHg 92%
18:00 +17°C° 0.4 mm 2 mps 618 mmHg 94%
19:00 +16°C° 0.4 mm 1 mps 618 mmHg 95%
20:00 +16°C° 0.4 mm 1 mps 619 mmHg 97%
21:00 +16°C° 0 mm 1 mps 619 mmHg 97%
22:00 +15°C° 0 mm 1 mps 619 mmHg 97%
23:00 +14°C° 0 mm 0 mps 619 mmHg 97%

Tomorrow, 11 April, Sunday

Time Temperature Precipitation Wind Pressure Humidity
00:00 +14°C° 0 mm 0 mps 618 mmHg 97%
01:00 +14°C° 0 mm 0 mps 618 mmHg 96%
02:00 +14°C° 0 mm 0 mps 618 mmHg 96%
03:00 +14°C° 0 mm 0 mps 618 mmHg 97%
04:00 +13°C° 0 mm 0 mps 618 mmHg 97%
05:00 +13°C° 0 mm 0 mps 618 mmHg 98%
06:00 +14°C° 0 mm 0 mps 619 mmHg 95%
07:00 +15°C° 0 mm 0 mps 620 mmHg 93%
08:00 +15°C° 0 mm 0 mps 621 mmHg 91%
09:00 +19°C° 0.1 mm 1 mps 621 mmHg 86%
10:00 +20°C° 0.1 mm 1 mps 621 mmHg 80%
11:00 +20°C° 0.1 mm 2 mps 621 mmHg 75%
12:00 +20°C° 0.7 mm 2 mps 621 mmHg 76%
13:00 +21°C° 0.7 mm 2 mps 620 mmHg 77%
14:00 +21°C° 0.7 mm 2 mps 620 mmHg 77%
15:00 +21°C° 1 mm 1 mps 619 mmHg 81%
16:00 +20°C° 1 mm 1 mps 619 mmHg 84%
17:00 +20°C° 1 mm 1 mps 619 mmHg 88%
18:00 +19°C° 0.7 mm 1 mps 619 mmHg 89%
19:00 +18°C° 0.7 mm 1 mps 619 mmHg 91%
20:00 +15°C° 0.7 mm 0 mps 619 mmHg 92%
21:00 +15°C° 0.1 mm 0 mps 619 mmHg 93%
22:00 +15°C° 0.1 mm 0 mps 620 mmHg 93%
23:00 +14°C° 0.1 mm 0 mps 620 mmHg 93%

Day after tomorrow, 12 April, Monday

Time Temperature Precipitation Wind Pressure Humidity
00:00 +14°C° 0 mm 0 mps 619 mmHg 94%
01:00 +15°C° 0 mm 1 mps 619 mmHg 94%
02:00 +14°C° 0 mm 1 mps 618 mmHg 95%
03:00 +14°C° 0 mm 1 mps 619 mmHg 95%
04:00 +14°C° 0 mm 1 mps 619 mmHg 95%
05:00 +14°C° 0 mm 1 mps 619 mmHg 95%
06:00 +14°C° 0.1 mm 0 mps 620 mmHg 94%
07:00 +15°C° 0.1 mm 0 mps 620 mmHg 93%
08:00 +16°C° 0.1 mm 0 mps 621 mmHg 91%
09:00 +19°C° 0.6 mm 1 mps 621 mmHg 88%
10:00 +20°C° 0.6 mm 1 mps 622 mmHg 85%
11:00 +20°C° 0.6 mm 2 mps 622 mmHg 82%
12:00 +20°C° 1 mm 2 mps 621 mmHg 81%
13:00 +20°C° 1 mm 2 mps 621 mmHg 81%
14:00 +20°C° 1 mm 2 mps 620 mmHg 81%
15:00 +21°C° 0.4 mm 1 mps 620 mmHg 82%
16:00 +21°C° 0.4 mm 1 mps 620 mmHg 83%
17:00 +21°C° 0.4 mm 1 mps 619 mmHg 84%
18:00 +20°C° 0.2 mm 1 mps 619 mmHg 87%
19:00 +18°C° 0.2 mm 1 mps 619 mmHg 91%
20:00 +16°C° 0.2 mm 1 mps 619 mmHg 94%
21:00 +16°C° 0 mm 1 mps 620 mmHg 94%
22:00 +15°C° 0 mm 1 mps 620 mmHg 94%
23:00 +15°C° 0 mm 1 mps 620 mmHg 94%

13 April, Tuesday

Time Temperature Precipitation Wind Pressure Humidity
00:00 +15°C° 0 mm 1 mps 619 mmHg 94%
01:00 +15°C° 0 mm 1 mps 619 mmHg 94%
02:00 +14°C° 0 mm 1 mps 618 mmHg 94%
03:00 +14°C° 0.2 mm 1 mps 619 mmHg 94%
04:00 +13°C° 0.2 mm 0 mps 619 mmHg 95%
05:00 +13°C° 0.2 mm 0 mps 619 mmHg 95%
06:00 +14°C° 0.1 mm 0 mps 620 mmHg 93%
07:00 +15°C° 0.1 mm 0 mps 621 mmHg 92%
08:00 +16°C° 0.1 mm 0 mps 621 mmHg 90%
09:00 +19°C° 0.4 mm 1 mps 621 mmHg 86%
10:00 +20°C° 0.4 mm 1 mps 621 mmHg 83%
11:00 +20°C° 0.4 mm 2 mps 622 mmHg 80%
12:00 +21°C° 0.4 mm 2 mps 621 mmHg 79%
13:00 +21°C° 0.4 mm 2 mps 620 mmHg 78%
14:00 +21°C° 0.4 mm 2 mps 620 mmHg 77%
15:00 +22°C° 0.3 mm 1 mps 620 mmHg 80%
16:00 +21°C° 0.3 mm 1 mps 620 mmHg 82%
17:00 +21°C° 0.3 mm 1 mps 619 mmHg 85%
18:00 +19°C° 0.3 mm 1 mps 619 mmHg 88%
19:00 +16°C° 0.3 mm 0 mps 619 mmHg 91%
20:00 +15°C° 0.3 mm 0 mps 619 mmHg 93%
21:00 +16°C° 0.1 mm 1 mps 619 mmHg 93%
22:00 +15°C° 0.1 mm 1 mps 619 mmHg 93%
23:00 +15°C° 0.1 mm 1 mps 620 mmHg 93%

14 April, Wednesday

Time Temperature Precipitation Wind Pressure Humidity
00:00 +15°C° 0.3 mm 1 mps 619 mmHg 94%
01:00 +15°C° 0.3 mm 1 mps 619 mmHg 94%
02:00 +14°C° 0.3 mm 1 mps 618 mmHg 94%
03:00 +14°C° 0.1 mm 1 mps 619 mmHg 94%
04:00 +13°C° 0.1 mm 0 mps 619 mmHg 94%
05:00 +13°C° 0.1 mm 0 mps 619 mmHg 94%
06:00 +14°C° 0 mm 0 mps 620 mmHg 92%
07:00 +15°C° 0 mm 0 mps 620 mmHg 90%
08:00 +16°C° 0 mm 0 mps 621 mmHg 88%
09:00 +18°C° 0.7 mm 0 mps 621 mmHg 83%
10:00 +21°C° 0.7 mm 1 mps 622 mmHg 79%
11:00 +22°C° 0.7 mm 1 mps 622 mmHg 75%
12:00 +23°C° 0.9 mm 1 mps 621 mmHg 74%
13:00 +23°C° 0.9 mm 1 mps 621 mmHg 74%
14:00 +23°C° 0.9 mm 1 mps 620 mmHg 73%
15:00 +22°C° 1.3 mm 1 mps 620 mmHg 78%
16:00 +21°C° 1.3 mm 1 mps 619 mmHg 83%
17:00 +20°C° 1.3 mm 1 mps 619 mmHg 88%
18:00 +19°C° 2.2 mm 1 mps 619 mmHg 89%
19:00 +19°C° 2.2 mm 1 mps 619 mmHg 91%
20:00 +18°C° 2.2 mm 1 mps 620 mmHg 92%
21:00 +16°C° 1.2 mm 1 mps 620 mmHg 94%
22:00 +16°C° 1.2 mm 1 mps 620 mmHg 95%
23:00 +16°C° 1.2 mm 1 mps 620 mmHg 96%

15 April, Thursday

Time Temperature Precipitation Wind Pressure Humidity
00:00 +16°C° 0.5 mm 1 mps 620 mmHg 97%
01:00 +16°C° 0.5 mm 1 mps 620 mmHg 97%
02:00 +16°C° 0.5 mm 1 mps 619 mmHg 97%
03:00 +15°C° 0.3 mm 1 mps 619 mmHg 97%
04:00 +15°C° 0.3 mm 1 mps 619 mmHg 97%
05:00 +15°C° 0.3 mm 1 mps 619 mmHg 97%
06:00 +16°C° 0.1 mm 1 mps 620 mmHg 95%
07:00 +16°C° 0.1 mm 1 mps 620 mmHg 93%
08:00 +16°C° 0.1 mm 0 mps 621 mmHg 92%
09:00 +19°C° 0.1 mm 1 mps 621 mmHg 86%
10:00 +20°C° 0.1 mm 1 mps 622 mmHg 80%
11:00 +22°C° 0.1 mm 1 mps 622 mmHg 74%
12:00 +22°C° 0.2 mm 1 mps 621 mmHg 72%
13:00 +23°C° 0.2 mm 1 mps 621 mmHg 70%
14:00 +24°C° 0.2 mm 1 mps 620 mmHg 68%
15:00 +23°C° 0.6 mm 2 mps 620 mmHg 74%
16:00 +20°C° 0.6 mm 2 mps 619 mmHg 81%
17:00 +19°C° 0.6 mm 2 mps 619 mmHg 87%
18:00 +18°C° 1.3 mm 2 mps 619 mmHg 90%
19:00 +18°C° 1.3 mm 1 mps 619 mmHg 92%
20:00 +16°C° 1.3 mm 1 mps 619 mmHg 95%
21:00 +16°C° 0.3 mm 1 mps 620 mmHg 95%
22:00 +16°C° 0.3 mm 1 mps 620 mmHg 95%
23:00 +15°C° 0.3 mm 0 mps 620 mmHg 94%
Show more